Time,TemperatureF,DewpointF,PressureIn,WindDirection,WindDirectionDegrees,WindSpeedMPH,WindSpeedGustMPH,Humidity,HourlyPrecipIn,Conditions,Clouds,dailyrainin,SoftwareType,DateUTC
2013-03-20 00:00:00,53.6,48.9,29.99,NW,311,0.0,1.0,84,0.00,,,0.00,Wunderground v.1.15,2013-03-20 07:00:00,
2013-03-20 00:05:00,53.6,48.9,29.99,NE,42,0.0,1.0,84,0.00,,,0.00,Wunderground v.1.15,2013-03-20 07:05:00,
2013-03-20 00:15:00,53.5,48.8,29.98,NE,42,0.0,0.0,84,0.00,,,0.00,Wunderground v.1.15,2013-03-20 07:15:00,
2013-03-20 00:20:00,53.5,49.1,29.98,NE,45,0.0,0.0,85,0.00,,,0.00,Wunderground v.1.15,2013-03-20 07:20:00,
2013-03-20 00:30:00,53.2,48.8,29.98,NE,45,0.0,0.0,85,0.00,,,0.00,Wunderground v.1.15,2013-03-20 07:30:00,
2013-03-20 00:40:00,52.9,48.5,29.98,NE,45,0.0,0.0,85,0.00,,,0.00,Wunderground v.1.15,2013-03-20 07:40:00,
2013-03-20 00:45:00,52.9,48.5,29.99,NE,45,0.0,0.0,85,0.00,,,0.00,Wunderground v.1.15,2013-03-20 07:45:00,
2013-03-20 00:56:00,52.9,48.8,29.99,NE,45,0.0,0.0,86,0.00,,,0.00,Wunderground v.1.15,2013-03-20 07:56:00,
2013-03-20 01:00:00,52.7,48.6,29.99,NE,45,0.0,0.0,86,0.00,,,0.00,Wunderground v.1.15,2013-03-20 08:00:00,
2013-03-20 01:10:00,52.9,48.8,29.99,NE,45,0.0,0.0,86,0.00,,,0.00,Wunderground v.1.15,2013-03-20 08:10:00,
2013-03-20 01:15:00,52.7,48.6,29.97,NE,45,0.0,0.0,86,0.00,,,0.00,Wunderground v.1.15,2013-03-20 08:15:00,
2013-03-20 01:25:00,52.7,48.9,29.97,NE,45,0.0,0.0,87,0.00,,,0.00,Wunderground v.1.15,2013-03-20 08:25:00,
2013-03-20 01:30:00,52.7,48.9,29.97,NE,45,0.0,2.0,87,0.00,,,0.00,Wunderground v.1.15,2013-03-20 08:30:00,
2013-03-20 01:40:00,52.9,49.1,29.96,NE,52,1.0,1.0,87,0.00,,,0.00,Wunderground v.1.15,2013-03-20 08:40:00,
2013-03-20 01:45:00,52.9,49.1,29.96,NE,52,1.0,2.0,87,0.00,,,0.00,Wunderground v.1.15,2013-03-20 08:45:00,
2013-03-20 01:55:00,53.0,49.2,29.95,NE,52,1.0,1.0,87,0.00,,,0.00,Wunderground v.1.15,2013-03-20 08:55:00,
2013-03-20 02:05:00,53.0,49.2,29.95,NE,52,0.0,0.0,87,0.00,,,0.00,Wunderground v.1.15,2013-03-20 09:05:00,
2013-03-20 02:10:00,52.9,49.1,29.95,NE,52,0.0,1.0,87,0.00,,,0.00,Wunderground v.1.15,2013-03-20 09:10:00,
2013-03-20 02:20:00,52.9,49.1,29.96,NE,52,1.0,1.0,87,0.00,,,0.00,Wunderground v.1.15,2013-03-20 09:20:00,
2013-03-20 02:25:00,52.7,48.9,29.96,NE,52,0.0,2.0,87,0.00,,,0.00,Wunderground v.1.15,2013-03-20 09:25:00,
2013-03-20 02:35:00,52.6,48.8,29.96,NE,52,1.0,1.0,87,0.00,,,0.00,Wunderground v.1.15,2013-03-20 09:35:00,
2013-03-20 02:50:00,52.3,48.5,29.95,NE,52,0.0,0.0,87,0.00,,,0.00,Wunderground v.1.15,2013-03-20 09:50:00,
2013-03-20 02:55:00,52.3,48.5,29.95,NE,52,0.0,0.0,87,0.00,,,0.00,Wunderground v.1.15,2013-03-20 09:55:00,
2013-03-20 03:05:00,52.0,48.3,29.95,NE,52,0.0,0.0,87,0.00,,,0.00,Wunderground v.1.15,2013-03-20 10:05:00,
2013-03-20 03:10:00,51.8,48.1,29.95,NE,52,0.0,0.0,87,0.00,,,0.00,Wunderground v.1.15,2013-03-20 10:10:00,
2013-03-20 03:20:00,51.8,48.4,29.95,NE,52,0.0,0.0,88,0.00,,,0.00,Wunderground v.1.15,2013-03-20 10:20:00,
2013-03-20 03:25:00,51.8,48.4,29.95,NE,52,0.0,0.0,88,0.00,,,0.00,Wunderground v.1.15,2013-03-20 10:25:00,
2013-03-20 03:35:00,51.6,48.2,29.95,NE,52,0.0,0.0,88,0.00,,,0.00,Wunderground v.1.15,2013-03-20 10:35:00,
2013-03-20 03:40:00,51.6,48.2,29.95,NE,52,0.0,0.0,88,0.00,,,0.00,Wunderground v.1.15,2013-03-20 10:40:00,
2013-03-20 03:50:00,51.3,47.9,29.95,NE,52,0.0,0.0,88,0.00,,,0.00,Wunderground v.1.15,2013-03-20 10:50:00,
2013-03-20 03:55:00,51.3,47.9,29.95,NE,52,0.0,0.0,88,0.00,,,0.00,Wunderground v.1.15,2013-03-20 10:55:00,
2013-03-20 04:05:00,51.1,47.7,29.95,NE,52,0.0,0.0,88,0.00,,,0.00,Wunderground v.1.15,2013-03-20 11:05:00,
2013-03-20 04:10:00,51.0,47.6,29.95,NE,52,0.0,0.0,88,0.00,,,0.00,Wunderground v.1.15,2013-03-20 11:10:00,
2013-03-20 04:20:00,50.8,47.7,29.94,NE,52,0.0,0.0,89,0.00,,,0.00,Wunderground v.1.15,2013-03-20 11:20:00,
2013-03-20 04:30:00,50.7,47.6,29.94,NE,52,0.0,0.0,89,0.00,,,0.00,Wunderground v.1.15,2013-03-20 11:30:00,
2013-03-20 04:35:00,50.7,47.6,29.94,NE,52,0.0,0.0,89,0.00,,,0.00,Wunderground v.1.15,2013-03-20 11:35:00,
2013-03-20 04:45:00,50.5,47.4,29.94,NE,52,0.0,0.0,89,0.00,,,0.00,Wunderground v.1.15,2013-03-20 11:45:00,
2013-03-20 04:50:00,50.5,47.4,29.94,NE,52,0.0,1.0,89,0.00,,,0.00,Wunderground v.1.15,2013-03-20 11:50:00,
2013-03-20 05:00:00,50.4,47.6,29.93,NE,52,1.0,1.0,90,0.00,,,0.00,Wunderground v.1.15,2013-03-20 12:00:00,
2013-03-20 05:05:00,50.4,47.6,29.93,NE,52,0.0,1.0,90,0.00,,,0.00,Wunderground v.1.15,2013-03-20 12:05:00,
2013-03-20 05:15:00,50.2,47.4,29.93,NE,52,0.0,0.0,90,0.00,,,0.00,Wunderground v.1.15,2013-03-20 12:15:00,
2013-03-20 05:20:00,50.2,47.4,29.93,NE,52,0.0,1.0,90,0.00,,,0.00,Wunderground v.1.15,2013-03-20 12:20:00,
2013-03-20 05:30:00,50.1,47.3,29.93,NE,52,0.0,0.0,90,0.00,,,0.00,Wunderground v.1.15,2013-03-20 12:30:00,
2013-03-20 05:35:00,50.1,47.3,29.93,NE,52,0.0,0.0,90,0.00,,,0.00,Wunderground v.1.15,2013-03-20 12:35:00,
2013-03-20 05:45:00,50.5,47.7,29.94,NE,52,1.0,1.0,90,0.00,,,0.00,Wunderground v.1.15,2013-03-20 12:45:00,
2013-03-20 05:50:00,50.5,47.7,29.94,NE,52,0.0,1.0,90,0.00,,,0.00,Wunderground v.1.15,2013-03-20 12:50:00,
2013-03-20 06:00:00,50.5,48.0,29.92,NE,52,2.0,2.0,91,0.00,,,0.00,Wunderground v.1.15,2013-03-20 13:00:00,
2013-03-20 06:05:00,50.5,48.0,29.92,NE,52,1.0,2.0,91,0.00,,,0.00,Wunderground v.1.15,2013-03-20 13:05:00,
2013-03-20 06:15:00,50.5,48.0,29.93,NE,52,0.0,1.0,91,0.00,,,0.00,Wunderground v.1.15,2013-03-20 13:15:00,
2013-03-20 06:20:00,50.8,48.3,29.93,NE,52,0.0,1.0,91,0.00,,,0.00,Wunderground v.1.15,2013-03-20 13:20:00,
2013-03-20 06:26:00,50.8,48.3,29.93,NE,52,0.0,0.0,91,0.00,,,0.00,Wunderground v.1.15,2013-03-20 13:26:00,
2013-03-20 06:30:00,50.7,48.2,29.93,NE,52,0.0,0.0,91,0.00,,,0.00,Wunderground v.1.15,2013-03-20 13:30:00,
2013-03-20 06:40:00,50.4,47.9,29.93,NE,52,0.0,0.0,91,0.00,,,0.00,Wunderground v.1.15,2013-03-20 13:40:00,
2013-03-20 06:55:00,50.4,47.9,29.94,NW,316,2.0,2.0,91,0.00,,,0.00,Wunderground v.1.15,2013-03-20 13:55:00,
2013-03-20 07:05:00,50.2,47.7,29.95,NW,316,1.0,2.0,91,0.00,,,0.00,Wunderground v.1.15,2013-03-20 14:05:00,
2013-03-20 07:15:00,50.2,47.7,29.94,NW,316,0.0,0.0,91,0.00,,,0.00,Wunderground v.1.15,2013-03-20 14:15:00,
2013-03-20 07:25:00,50.5,48.0,29.94,NW,316,0.0,0.0,91,0.00,,,0.00,Wunderground v.1.15,2013-03-20 14:25:00,
2013-03-20 07:30:00,50.7,48.2,29.95,NW,316,0.0,0.0,91,0.00,,,0.00,Wunderground v.1.15,2013-03-20 14:30:00,
2013-03-20 07:40:00,52.0,49.7,29.95,NW,316,0.0,0.0,92,0.00,,,0.00,Wunderground v.1.15,2013-03-20 14:40:00,
2013-03-20 07:45:00,52.3,49.8,29.94,NW,316,0.0,0.0,91,0.00,,,0.00,Wunderground v.1.15,2013-03-20 14:45:00,
2013-03-20 07:55:00,52.6,50.0,29.94,NW,316,0.0,1.0,91,0.00,,,0.00,Wunderground v.1.15,2013-03-20 14:55:00,
2013-03-20 08:00:00,52.9,50.3,29.94,NW,316,0.0,1.0,91,0.00,,,0.00,Wunderground v.1.15,2013-03-20 15:00:00,
2013-03-20 08:10:00,53.3,50.7,29.94,NW,316,0.0,0.0,91,0.00,,,0.00,Wunderground v.1.15,2013-03-20 15:10:00,
2013-03-20 08:15:00,53.6,51.0,29.95,NW,316,0.0,0.0,91,0.00,,,0.00,Wunderground v.1.15,2013-03-20 15:15:00,
2013-03-20 08:25:00,54.5,51.9,29.95,NW,316,1.0,1.0,91,0.00,,,0.00,Wunderground v.1.15,2013-03-20 15:25:00,
2013-03-20 08:40:00,55.2,52.0,29.96,NW,316,0.0,0.0,89,0.00,,,0.00,Wunderground v.1.15,2013-03-20 15:40:00,
2013-03-20 08:45:00,55.4,52.2,29.96,NW,316,0.0,0.0,89,0.00,,,0.00,Wunderground v.1.15,2013-03-20 15:45:00,
2013-03-20 08:55:00,55.5,51.7,29.96,NW,316,0.0,0.0,87,0.00,,,0.00,Wunderground v.1.15,2013-03-20 15:55:00,
2013-03-20 09:10:00,56.3,51.5,29.97,NW,316,0.0,0.0,84,0.00,,,0.00,Wunderground v.1.15,2013-03-20 16:10:00,
2013-03-20 09:15:00,56.5,51.4,29.97,NW,316,0.0,1.0,83,0.00,,,0.00,Wunderground v.1.15,2013-03-20 16:15:00,
2013-03-20 09:30:00,56.9,50.8,29.97,NW,316,1.0,1.0,80,0.00,,,0.00,Wunderground v.1.15,2013-03-20 16:30:00,
2013-03-20 09:35:00,57.2,51.1,29.97,NW,316,1.0,2.0,80,0.00,,,0.00,Wunderground v.1.15,2013-03-20 16:35:00,
2013-03-20 09:45:00,58.0,51.2,29.97,NW,316,0.0,0.0,78,0.00,,,0.00,Wunderground v.1.15,2013-03-20 16:45:00,
2013-03-20 09:50:00,58.1,50.9,29.97,NW,316,1.0,1.0,77,0.00,,,0.00,Wunderground v.1.15,2013-03-20 16:50:00,
2013-03-20 09:55:00,58.3,50.8,29.97,NW,316,1.0,1.0,76,0.00,,,0.00,Wunderground v.1.15,2013-03-20 16:55:00,
2013-03-20 10:05:00,58.9,51.0,29.96,NW,316,0.0,0.0,75,0.00,,,0.00,Wunderground v.1.15,2013-03-20 17:05:00,
2013-03-20 10:10:00,59.4,51.1,29.96,NW,316,0.0,1.0,74,0.00,,,0.00,Wunderground v.1.15,2013-03-20 17:10:00,
2013-03-20 10:20:00,60.0,51.7,29.97,WSW,256,1.0,3.0,74,0.00,,,0.00,Wunderground v.1.15,2013-03-20 17:20:00,
2013-03-20 10:25:00,60.1,51.4,29.97,West,263,1.0,3.0,73,0.00,,,0.00,Wunderground v.1.15,2013-03-20 17:25:00,
2013-03-20 10:35:00,60.8,51.7,29.97,SW,233,2.0,6.0,72,0.00,,,0.00,Wunderground v.1.15,2013-03-20 17:35:00,
2013-03-20 10:45:00,61.1,52.0,29.97,West,264,3.0,3.0,72,0.00,,,0.00,Wunderground v.1.15,2013-03-20 17:45:00,
2013-03-20 10:55:00,61.6,52.1,29.98,WSW,244,3.0,4.0,71,0.00,,,0.00,Wunderground v.1.15,2013-03-20 17:55:00,
2013-03-20 11:00:00,61.9,52.4,29.97,WSW,240,2.0,2.0,71,0.00,,,0.00,Wunderground v.1.15,2013-03-20 18:00:00,
2013-03-20 11:10:00,63.0,53.1,29.97,SSW,205,2.0,2.0,70,0.00,,,0.00,Wunderground v.1.15,2013-03-20 18:10:00,
2013-03-20 11:20:00,63.5,53.1,29.97,SW,220,3.0,5.0,69,0.00,,,0.00,Wunderground v.1.15,2013-03-20 18:20:00,
2013-03-20 11:30:00,62.7,52.8,29.97,SW,227,4.0,4.0,70,0.00,,,0.00,Wunderground v.1.15,2013-03-20 18:30:00,
2013-03-20 11:35:00,62.7,53.2,29.97,SSE,162,3.0,4.0,71,0.00,,,0.00,Wunderground v.1.15,2013-03-20 18:35:00,
2013-03-20 11:46:00,63.0,53.1,29.98,South,184,4.0,4.0,70,0.00,,,0.00,Wunderground v.1.15,2013-03-20 18:46:00,
2013-03-20 11:55:00,62.5,52.6,29.98,West,263,5.0,7.0,70,0.00,,,0.00,Wunderground v.1.15,2013-03-20 18:55:00,
2013-03-20 12:05:00,63.8,53.8,29.98,SW,229,3.0,3.0,70,0.00,,,0.00,Wunderground v.1.15,2013-03-20 19:05:00,
2013-03-20 12:10:00,64.1,53.3,29.98,SSW,192,3.0,3.0,68,0.00,,,0.00,Wunderground v.1.15,2013-03-20 19:10:00,
2013-03-20 12:20:00,65.1,53.0,29.97,South,175,3.0,3.0,65,0.00,,,0.00,Wunderground v.1.15,2013-03-20 19:20:00,
2013-03-20 12:25:00,65.3,53.6,29.97,South,186,3.0,3.0,66,0.00,,,0.00,Wunderground v.1.15,2013-03-20 19:25:00,
2013-03-20 12:30:00,65.6,53.5,29.97,SE,140,3.0,3.0,65,0.00,,,0.00,Wunderground v.1.15,2013-03-20 19:30:00,
2013-03-20 12:40:00,65.9,52.9,29.96,SSW,196,4.0,6.0,63,0.00,,,0.00,Wunderground v.1.15,2013-03-20 19:40:00,
2013-03-20 12:45:00,65.8,53.7,29.96,SW,222,4.0,6.0,65,0.00,,,0.00,Wunderground v.1.15,2013-03-20 19:45:00,
2013-03-20 12:55:00,65.4,52.9,29.96,SSW,210,5.0,5.0,64,0.00,,,0.00,Wunderground v.1.15,2013-03-20 19:55:00,
2013-03-20 13:00:00,64.9,52.8,29.96,SW,215,4.0,4.0,65,0.00,,,0.00,Wunderground v.1.15,2013-03-20 20:00:00,
2013-03-20 13:15:00,65.1,53.0,29.95,South,178,4.0,5.0,65,0.00,,,0.00,Wunderground v.1.15,2013-03-20 20:15:00,
2013-03-20 13:30:00,66.1,53.6,29.95,SSE,158,4.0,4.0,64,0.00,,,0.00,Wunderground v.1.15,2013-03-20 20:30:00,
2013-03-20 13:45:00,66.9,53.9,29.93,SSE,157,4.0,6.0,63,0.00,,,0.00,Wunderground v.1.15,2013-03-20 20:45:00,
2013-03-20 14:00:00,67.8,53.9,29.92,SE,131,4.0,4.0,61,0.00,,,0.00,Wunderground v.1.15,2013-03-20 21:00:00,
2013-03-20 14:05:00,67.4,53.5,29.92,SSE,152,4.0,4.0,61,0.00,,,0.00,Wunderground v.1.15,2013-03-20 21:05:00,
2013-03-20 14:16:00,68.1,54.1,29.92,SSE,150,3.0,5.0,61,0.00,,,0.00,Wunderground v.1.15,2013-03-20 21:16:00,
2013-03-20 14:20:00,68.4,53.5,29.92,SW,232,3.0,5.0,59,0.00,,,0.00,Wunderground v.1.15,2013-03-20 21:20:00,
2013-03-20 14:31:00,67.1,53.6,29.92,SSW,213,5.0,5.0,62,0.00,,,0.00,Wunderground v.1.15,2013-03-20 21:31:00,
2013-03-20 14:40:00,67.6,53.7,29.92,South,185,5.0,7.0,61,0.00,,,0.00,Wunderground v.1.15,2013-03-20 21:40:00,
2013-03-20 14:45:00,67.4,53.0,29.91,South,188,5.0,5.0,60,0.00,,,0.00,Wunderground v.1.15,2013-03-20 21:45:00,
2013-03-20 14:56:00,67.4,53.5,29.91,South,172,5.0,5.0,61,0.00,,,0.00,Wunderground v.1.15,2013-03-20 21:56:00,
2013-03-20 15:05:00,66.4,53.0,29.91,SSW,212,6.0,8.0,62,0.00,,,0.00,Wunderground v.1.15,2013-03-20 22:05:00,
2013-03-20 15:15:00,66.6,52.7,29.90,SW,230,7.0,7.0,61,0.00,,,0.00,Wunderground v.1.15,2013-03-20 22:15:00,
2013-03-20 15:20:00,66.6,53.6,29.90,SSW,199,6.0,7.0,63,0.00,,,0.00,Wunderground v.1.15,2013-03-20 22:20:00,
2013-03-20 15:35:00,68.1,53.2,29.90,SW,223,6.0,10.0,59,0.00,,,0.00,Wunderground v.1.15,2013-03-20 22:35:00,
2013-03-20 15:50:00,68.3,52.5,29.90,West,278,4.0,4.0,57,0.00,,,0.00,Wunderground v.1.15,2013-03-20 22:50:00,
2013-03-20 15:55:00,68.6,50.8,29.90,West,260,4.0,5.0,53,0.00,,,0.00,Wunderground v.1.15,2013-03-20 22:55:00,
2013-03-20 16:10:00,70.5,52.0,29.90,SSW,195,3.0,7.0,52,0.00,,,0.00,Wunderground v.1.15,2013-03-20 23:10:00,
2013-03-20 16:15:00,70.3,52.4,29.90,WNW,298,3.0,7.0,53,0.00,,,0.00,Wunderground v.1.15,2013-03-20 23:15:00,
2013-03-20 16:25:00,69.6,51.2,29.90,SSW,205,7.0,7.0,52,0.00,,,0.00,Wunderground v.1.15,2013-03-20 23:25:00,
2013-03-20 16:30:00,69.6,47.9,29.89,WSW,258,6.0,7.0,46,0.00,,,0.00,Wunderground v.1.15,2013-03-20 23:30:00,
2013-03-20 16:35:00,69.8,48.1,29.89,WNW,292,5.0,7.0,46,0.00,,,0.00,Wunderground v.1.15,2013-03-20 23:35:00,
2013-03-20 16:50:00,69.6,47.3,29.89,NW,309,6.0,6.0,45,0.00,,,0.00,Wunderground v.1.15,2013-03-20 23:50:00,
2013-03-20 16:55:00,68.9,47.3,29.89,West,271,6.0,8.0,46,0.00,,,0.00,Wunderground v.1.15,2013-03-20 23:55:00,
2013-03-20 17:05:00,68.9,47.3,29.89,West,277,6.0,6.0,46,0.00,,,0.00,Wunderground v.1.15,2013-03-21 00:05:00,
2013-03-20 17:10:00,68.8,49.9,29.89,SSW,196,5.0,6.0,51,0.00,,,0.00,Wunderground v.1.15,2013-03-21 00:10:00,
2013-03-20 17:25:00,66.9,52.6,29.89,SSW,206,3.0,4.0,60,0.00,,,0.00,Wunderground v.1.15,2013-03-21 00:25:00,
2013-03-20 17:30:00,66.1,52.7,29.88,South,189,4.0,6.0,62,0.00,,,0.00,Wunderground v.1.15,2013-03-21 00:30:00,
2013-03-20 17:35:00,64.8,52.3,29.88,SSW,209,5.0,8.0,64,0.00,,,0.00,Wunderground v.1.15,2013-03-21 00:35:00,
2013-03-20 17:45:00,62.7,52.8,29.89,WSW,247,6.0,6.0,70,0.00,,,0.00,Wunderground v.1.15,2013-03-21 00:45:00,
2013-03-20 17:50:00,62.4,52.5,29.89,SW,219,6.0,6.0,70,0.00,,,0.00,Wunderground v.1.15,2013-03-21 00:50:00,
2013-03-20 18:00:00,61.7,51.8,29.88,WSW,247,5.0,5.0,70,0.00,,,0.00,Wunderground v.1.15,2013-03-21 01:00:00,
2013-03-20 18:05:00,61.9,50.0,29.88,WNW,296,4.0,5.0,65,0.00,,,0.00,Wunderground v.1.15,2013-03-21 01:05:00,
2013-03-20 18:15:00,63.0,48.9,29.87,West,278,3.0,3.0,60,0.00,,,0.00,Wunderground v.1.15,2013-03-21 01:15:00,
2013-03-20 18:20:00,63.3,49.6,29.87,NW,322,3.0,3.0,61,0.00,,,0.00,Wunderground v.1.15,2013-03-21 01:20:00,
2013-03-20 18:35:00,64.1,46.1,29.87,NW,313,5.0,5.0,52,0.00,,,0.00,Wunderground v.1.15,2013-03-21 01:35:00,
2013-03-20 18:40:00,64.1,46.6,29.87,WNW,292,6.0,6.0,53,0.00,,,0.00,Wunderground v.1.15,2013-03-21 01:40:00,
2013-03-20 18:50:00,63.7,47.2,29.88,WNW,299,4.0,4.0,55,0.00,,,0.00,Wunderground v.1.15,2013-03-21 01:50:00,
2013-03-20 18:55:00,63.5,47.5,29.88,NW,318,3.0,4.0,56,0.00,,,0.00,Wunderground v.1.15,2013-03-21 01:55:00,
2013-03-20 19:06:00,63.0,47.5,29.88,NW,315,1.0,1.0,57,0.00,,,0.00,Wunderground v.1.15,2013-03-21 02:06:00,
2013-03-20 19:10:00,62.8,47.3,29.88,NW,315,0.0,1.0,57,0.00,,,0.00,Wunderground v.1.15,2013-03-21 02:10:00,
2013-03-20 19:15:00,62.7,47.7,29.88,NW,315,0.0,1.0,58,0.00,,,0.00,Wunderground v.1.15,2013-03-21 02:15:00,
2013-03-20 19:25:00,62.2,49.9,29.88,NW,315,0.0,0.0,64,0.00,,,0.00,Wunderground v.1.15,2013-03-21 02:25:00,
2013-03-20 19:30:00,61.7,50.6,29.87,NW,315,0.0,1.0,67,0.00,,,0.00,Wunderground v.1.15,2013-03-21 02:30:00,
2013-03-20 19:45:00,60.5,47.4,29.87,NW,306,1.0,2.0,62,0.00,,,0.00,Wunderground v.1.15,2013-03-21 02:45:00,
2013-03-20 19:56:00,60.1,50.7,29.87,SSE,151,2.0,2.0,71,0.00,,,0.00,Wunderground v.1.15,2013-03-21 02:56:00,
2013-03-20 20:05:00,59.2,50.9,29.87,SE,127,2.0,3.0,74,0.00,,,0.00,Wunderground v.1.15,2013-03-21 03:05:00,
2013-03-20 20:15:00,58.4,50.9,29.87,SE,130,3.0,6.0,76,0.00,,,0.00,Wunderground v.1.15,2013-03-21 03:15:00,
2013-03-20 20:20:00,58.3,51.1,29.87,SE,141,3.0,6.0,77,0.00,,,0.00,Wunderground v.1.15,2013-03-21 03:20:00,
2013-03-20 20:25:00,58.1,50.9,29.87,SSW,198,2.0,2.0,77,0.00,,,0.00,Wunderground v.1.15,2013-03-21 03:25:00,
2013-03-20 20:40:00,57.7,50.9,29.87,SW,219,2.0,2.0,78,0.00,,,0.00,Wunderground v.1.15,2013-03-21 03:40:00,
2013-03-20 20:45:00,57.5,50.7,29.87,SSW,200,2.0,2.0,78,0.00,,,0.00,Wunderground v.1.15,2013-03-21 03:45:00,
2013-03-20 20:50:00,57.4,50.9,29.87,SSW,205,2.0,2.0,79,0.00,,,0.00,Wunderground v.1.15,2013-03-21 03:50:00,
2013-03-20 21:00:00,57.2,50.7,29.87,SW,216,1.0,1.0,79,0.00,,,0.00,Wunderground v.1.15,2013-03-21 04:00:00,
2013-03-20 21:05:00,57.2,50.7,29.87,SSE,147,1.0,1.0,79,0.00,,,0.00,Wunderground v.1.15,2013-03-21 04:05:00,
2013-03-20 21:10:00,57.1,51.0,29.87,SSE,147,0.0,0.0,80,0.00,,,0.00,Wunderground v.1.15,2013-03-21 04:10:00,
2013-03-20 21:15:00,57.1,51.0,29.87,SSE,147,0.0,1.0,80,0.00,,,0.00,Wunderground v.1.15,2013-03-21 04:15:00,
2013-03-20 21:25:00,56.9,50.8,29.86,SSE,147,1.0,1.0,80,0.00,,,0.00,Wunderground v.1.15,2013-03-21 04:25:00,
2013-03-20 21:30:00,56.8,51.0,29.87,SSE,147,1.0,2.0,81,0.00,,,0.00,Wunderground v.1.15,2013-03-21 04:30:00,
2013-03-20 21:35:00,56.6,50.8,29.87,SSE,147,1.0,2.0,81,0.00,,,0.00,Wunderground v.1.15,2013-03-21 04:35:00,
2013-03-20 21:55:00,56.6,51.2,29.88,SSE,147,1.0,1.0,82,0.00,,,0.00,Wunderground v.1.15,2013-03-21 04:55:00,
2013-03-20 22:00:00,56.6,51.2,29.87,SSE,147,1.0,1.0,82,0.00,,,0.00,Wunderground v.1.15,2013-03-21 05:00:00,
2013-03-20 22:15:00,56.5,51.4,29.87,ESE,113,1.0,2.0,83,0.00,,,0.00,Wunderground v.1.15,2013-03-21 05:15:00,
2013-03-20 22:20:00,56.5,51.4,29.87,East,99,1.0,2.0,83,0.00,,,0.00,Wunderground v.1.15,2013-03-21 05:20:00,
2013-03-20 22:40:00,56.3,51.2,29.88,ESE,104,1.0,1.0,83,0.00,,,0.00,Wunderground v.1.15,2013-03-21 05:40:00,
2013-03-20 22:45:00,56.3,51.2,29.88,ESE,104,1.0,2.0,83,0.00,,,0.00,Wunderground v.1.15,2013-03-21 05:45:00,
2013-03-20 22:55:00,56.1,51.0,29.88,ESE,104,0.0,1.0,83,0.00,,,0.00,Wunderground v.1.15,2013-03-21 05:55:00,
2013-03-20 23:00:00,56.1,51.0,29.87,ESE,104,0.0,1.0,83,0.00,,,0.00,Wunderground v.1.15,2013-03-21 06:00:00,
2013-03-20 23:15:00,56.1,51.3,29.86,ESE,104,1.0,1.0,84,0.00,,,0.00,Wunderground v.1.15,2013-03-21 06:15:00,
2013-03-20 23:20:00,56.1,51.3,29.86,ESE,114,2.0,5.0,84,0.00,,,0.00,Wunderground v.1.15,2013-03-21 06:20:00,
2013-03-20 23:25:00,56.0,50.9,29.86,ESE,107,2.0,2.0,83,0.00,,,0.00,Wunderground v.1.15,2013-03-21 06:25:00,
2013-03-20 23:30:00,56.0,50.9,29.86,ESE,123,3.0,3.0,83,0.00,,,0.00,Wunderground v.1.15,2013-03-21 06:30:00,
2013-03-20 23:40:00,55.8,50.7,29.85,SE,136,3.0,3.0,83,0.00,,,0.00,Wunderground v.1.15,2013-03-21 06:40:00,
2013-03-20 23:45:00,55.8,50.7,29.85,SE,143,2.0,3.0,83,0.00,,,0.00,Wunderground v.1.15,2013-03-21 06:45:00,
2013-03-20 23:55:00,55.7,50.6,29.85,SE,130,1.0,2.0,83,0.00,,,0.00,Wunderground v.1.15,2013-03-21 06:55:00,